Location: Newark
(45.2500°N, 7.5833°E)
Time: 18:44:26
(UTC+00:00)

A-11 Canister half - Pass Details

Date: 27 January 2020
Orbit: 1525 x 1684 km, 47.3° (Epoch: 17 February)

Event Time Altitude Azimuth Distance (km) Brightness Sun altitude
Rises 17:33:37 0° 247° (WSW) 4,670 13.6 -11.5°
Reaches altitude 10° 17:36:37 10° 248° (WSW) 3,696 12.5 -12.0°
Maximum altitude 17:45:59 86° 160° (SSE) 1,560 9.0 -13.6°
Enters shadow 17:53:30 19° 74° (ENE) 3,134 10.0 -14.9°
Drops below altitude 10° 17:55:37 10° 74° (ENE) 3,800 - -15.3°
Sets 17:58:45 0° 74° (ENE) 4,808 - -15.8°
